Location: Beccas
(43.4309°N, 0.1528°E)
Time: 14:47:10
(UTC+00:00)

Transit 2A Rocket - Pass Details

Date: 31 May 2022
Orbit: 593 x 908 km, 66.7° (Epoch: 30 June)

Event Time Altitude Azimuth Distance (km) Brightness Sun altitude
Rises 20:18:14 0° 332° (NNW) 2,921 9.5 -7.5°
Reaches altitude 10° 20:20:38 10° 339° (NNW) 1,980 8.3 -7.9°
Maximum altitude 20:24:54 47° 54° (NE) 796 5.0 -8.5°
Enters shadow 20:28:44 12° 127° (SE) 1,809 6.3 -9.0°
